Roanoke, VA

6:01 PM EST on November 16, 2019 (GMT -0500)
Roanoke Regional-Woodrum

Weather History for KROA - September, 2019

Change the Weather History Date:

Saturday, September 14, 2019

  Actual Average Record
Temperature  
Mean Temperature 73 °F 69 °F  
Max Temperature 80 °F 79 °F 96 °F (1930)
Min Temperature 66 °F 58 °F 40 °F (1975)
Degree Days  
Heating Degree Days 0 1  
Month to date heating degree days 0 6  
Since 1 July heating degree days 0 7  
Cooling Degree Days 8 5  
Month to date cooling degree days 170 91  
Year to date cooling degree days 1533 1138  
Growing Degree Days 22 (Base 50)    
Moisture  
Dew Point 67 °F    
Average Humidity 86    
Maximum Humidity 100    
Minimum Humidity 71    
Precipitation  
Precipitation 0.15 in 0.14 in 1.57 in (1966)
Month to date precipitation 0.80 1.89  
Year to date precipitation 31.50 30.02  
Snow  
Snow 0.00 in - - ()
Month to date snowfall 0.0  
Since 1 July snowfall T  
Since 1 September snowfall 0.0  
Snow Depth 0.00 in    
Sea Level Pressure  
Sea Level Pressure 30.27 in    
Wind  
Wind Speed 5 mph (ESE)    
Max Wind Speed 15 mph    
Max Gust Speed 17 mph    
Visibility 8 miles    
Events Rain , Thunderstorm    
T = Trace of Precipitation, MM = Missing Value Source: NWS Daily Summary

Daily Weather History Graph

Daily Weather History Graph

Search for Another Location

Airport or City:

Astronomy

Sep. 14, 2019 Rise Set
Actual Time 7:00 AM EDT 7:29 PM EDT
Civil Twilight 6:34 AM EDT 7:55 PM EDT
Nautical Twilight 6:03 AM EDT 8:26 PM EDT
Astronomical Twilight 5:32 AM EDT 8:57 PM EDT
Moon 8:09 PM EDT (9/14) 7:13 AM EDT (9/14)
Length of Visible Light 13h 20m
Length of Day
12h 28m
Full, 100% of the Moon is Illuminated
Sep 14
Full
Sep 21
Last Quarter
Sep 28
New
Oct 5
First Quarter
Oct 13
Full

Hourly Weather History & Observations

Time (EDT) Temp. Dew Point Humidity Pressure Visibility Wind Dir Wind Speed Gust Speed Precip Events Conditions
12:12 AM 68.0 °F 66.0 °F 93% 30.36 in 4.0 mi ESE 8.1 mph - N/A   Overcast
12:27 AM 66.9 °F 64.9 °F 93% 30.35 in 10.0 mi SE 8.1 mph - N/A   Overcast
12:54 AM 68.0 °F 64.9 °F 90% 30.32 in 10.0 mi ESE 9.2 mph - N/A   Overcast
1:54 AM 68.0 °F 64.0 °F 87% 30.33 in 10.0 mi ESE 6.9 mph - N/A   Overcast
2:54 AM 66.9 °F 64.9 °F 93% 30.29 in 7.0 mi ESE 9.2 mph - N/A   Overcast
3:54 AM 66.9 °F 64.0 °F 90% 30.29 in 10.0 mi SE 5.8 mph - N/A   Overcast
4:54 AM 66.9 °F 64.9 °F 93% 30.29 in 8.0 mi ESE 5.8 mph - N/A   Overcast
5:54 AM 66.0 °F 64.9 °F 96% 30.30 in 3.0 mi SE 5.8 mph - N/A   Overcast
6:54 AM 66.0 °F 64.9 °F 96% 30.30 in 3.0 mi SE 4.6 mph - N/A   Overcast
7:54 AM 66.9 °F 66.0 °F 97% 30.31 in 3.0 mi ESE 4.6 mph - N/A   Overcast
8:54 AM 66.9 °F 66.0 °F 97% 30.32 in 3.0 mi SE 4.6 mph - N/A   Overcast
9:03 AM 68.0 °F 66.0 °F 93% 30.34 in 3.0 mi SE 6.9 mph - N/A   Overcast
9:54 AM 69.1 °F 66.9 °F 93% 30.32 in 10.0 mi SE 3.5 mph - N/A   Overcast
10:54 AM 70.0 °F 66.0 °F 87% 30.32 in 10.0 mi ESE 5.8 mph - N/A   Overcast
11:54 AM 71.1 °F 66.9 °F 87% 30.31 in 10.0 mi Calm Calm - N/A   Overcast
12:21 PM 73.0 °F 66.9 °F 81% 30.32 in 10.0 mi Calm Calm - N/A   Overcast
12:54 PM 73.9 °F 66.9 °F 79% 30.29 in 10.0 mi Calm Calm - N/A   Overcast
1:54 PM 77.0 °F 68.0 °F 74% 30.25 in 10.0 mi SE 5.8 mph - N/A   Overcast
2:54 PM 78.1 °F 68.0 °F 71% 30.23 in 10.0 mi ESE 6.9 mph - N/A   Mostly Cloudy
3:54 PM 79.0 °F 69.1 °F 72% 30.20 in 10.0 mi SE 9.2 mph - N/A   Scattered Clouds
4:54 PM 79.0 °F 69.1 °F 72% 30.18 in 10.0 mi ESE 11.5 mph - N/A   Scattered Clouds
5:54 PM 77.0 °F 68.0 °F 74% 30.18 in 10.0 mi SE 11.5 mph - N/A   Mostly Cloudy
6:54 PM 77.0 °F 69.1 °F 76% 30.21 in 10.0 mi ESE 6.9 mph - N/A   Overcast
7:46 PM 75.9 °F 68.0 °F 76% 30.24 in 10.0 mi East 8.1 mph - N/A Thunderstorm Thunderstorm
7:54 PM 75.9 °F 68.0 °F 76% 30.22 in 10.0 mi East 5.8 mph - N/A Thunderstorm Thunderstorm
8:54 PM 73.0 °F 69.1 °F 87% 30.21 in 4.0 mi East 8.1 mph - 0.07 in Rain , Thunderstorm Heavy Thunderstorms and Rain
9:01 PM 73.0 °F 70.0 °F 90% 30.24 in 4.0 mi SE 8.1 mph - 0.08 in Rain , Thunderstorm Light Thunderstorms and Rain
9:44 PM 72.0 °F 69.1 °F 91% 30.25 in 10.0 mi NNW 3.5 mph - 0.08 in   Scattered Clouds
9:54 PM 72.0 °F 70.0 °F 93% 30.22 in 10.0 mi Calm Calm - 0.08 in   Scattered Clouds
10:01 PM 72.0 °F 70.0 °F 93% 30.25 in 10.0 mi Calm Calm - N/A   Mostly Cloudy
10:54 PM 71.1 °F 69.1 °F 93% 30.21 in 10.0 mi NNW 3.5 mph - N/A   Scattered Clouds
11:54 PM 70.0 °F 69.1 °F 97% 30.20 in 10.0 mi Calm Calm - N/A   Scattered Clouds